Regional Weather Roundup
Issued by NWS State College, PA

Current Version | Previous Version | Text Only | Print | Product List | Glossary On
Versions: 1 2 3 4 5 6 7 8 9 10 11 12 13 14 15 16 17 18 19 20 21 22 23 24 25 26 27 28 29 30 31 32 33 34 35 36 37 38 39 40 41 42 43 44 45 46 47 48 49 50
000
ASUS41 KCTP 261110
RWRCTP

REGIONAL WEATHER ROUNDUP
NATIONAL WEATHER SERVICE STATE COLLEGE PA
700 AM EDT MON JUN 26 2017

Note: "fair" indicates few or no clouds below 12,000 feet with no
significant weather and/or obstructions to visibility.

* = STATION THAT DOES NOT REPORT PRECIPITATION /E.G. RAIN...SNOW...ETC/
    THUNDER OR FOG.

PAZ002>004-007>009-013>016-020>023-029>032-261200-
WESTERN PENNSYLVANIA

CITY           SKY/WX    TMP DP  RH WIND       PRES   REMARKS
ERIE           SUNNY     57  50  77 S8        30.03R
MEADVILLE      SUNNY     54  50  86 S3        30.06R
FRANKLIN*      CLOUDY    52  45  76 SW6       30.07S
NEW CASTLE     PTSUNNY   52  49  89 MISG      30.08R
BEAVER COUNTY  SUNNY     54  46  76 SW3       30.08
BUTLER*        SUNNY     52  46  82 CALM      30.09R
PITTSBURGH INT MOSUNNY   56  47  71 W3        30.08R
PITTSBURGH     SUNNY     58  44  60 SW9       30.08S
INDIANA*       SUNNY     54  50  87 CALM      30.12R
LATROBE        SUNNY     55  52  88 SW6       30.10S
WASHINGTON CO* SUNNY     50  46  87 CALM      30.12S
$$

PAZ004>006-010>012-017>019-024>028-033>037-041-042-045-046-049>053-261200-
CENTRAL PENNSYLVANIA

CITY           SKY/WX    TMP DP  RH WIND       PRES   REMARKS
BRADFORD       SUNNY     48  48 100 CALM      30.06S
DUBOIS         SUNNY     51  45  79 CALM      30.07R
CLEARFIELD     MOSUNNY   50  49  96 S3        30.09R
JOHNSTOWN      SUNNY     55  45  68 S6        30.10R
ALTOONA        SUNNY     57  50  77 CALM      30.10R
STATE COLLEGE  SUNNY     54  50  87 SW6       30.08R
WILLIAMSPORT   SUNNY     55  52  88 MISG      30.05
SELINSGROVE    NOT AVBL
FT INDIANTOWN  SUNNY     56  55  94 CALM      30.06R
CAPITAL CITY   NOT AVBL
HARRISBURG     SUNNY     65  54  67 NW6       30.06
YORK           NOT AVBL
$$

PAZ038>040-043-044-047-048-054-055-060>062-067>071-261200-
EASTERN PENNSYLVANIA

CITY           SKY/WX    TMP DP  RH WIND       PRES   REMARKS
SCRANTON       NOT AVBL
MOUNT POCONO   NOT AVBL
ALLENTOWN      NOT AVBL
QUAKERTOWN*    SUNNY     57  54  88 CALM      30.06S
READING        NOT AVBL
LANCASTER      SUNNY     63  57  82 CALM      30.06
COATESVILLE    SUNNY     63  54  72 W5        30.08R
POTTSTOWN      NOT AVBL
BLUE BELL      SUNNY     59  57  94 CALM      30.06S
DOYLESTOWN     NOT AVBL
WILLOW GROVE   NOT AVBL
NORTH PHILA    NOT AVBL
PHILADELPHIA   MOSUNNY   68  49  50 NW6       30.05R
$$



USA.gov is the U.S. government's official web portal to all federal, state and local government web resources and services.